Regional Weather Roundup
Issued by NWS Wakefield, VA

Home | Current Version | Previous Version | Text Only | Print | Product List | Glossary Off
Versions: 1 2 3 4 5 6 7 8 9 10 11 12 13 14 15 16 17 18 19 20 21 22 23 24 25 26 27 28 29 30 31 32 33 34 35 36 37 38 39 40 41 42 43 44 45 46 47 48 49 50

000
ASUS41 KAKQ 030815
RWRAKQ

REGIONAL WEATHER ROUNDUP
NATIONAL WEATHER SERVICE WAKEFIELD VA
400 AM EDT MON AUG 03 2015

Note: "fair" indicates few or no clouds below 12,000 feet with no
significant weather and/or obstructions to visibility. * = Denotes
station may not report precipitation (e.g., rain,snow,etc.),
thunder or fog.

VAZ042-051-052>054-056-030900-
NORTHERN VIRGINIA

CITY           SKY/WX    TMP DP  RH WIND       PRES   REMARKS
WASH NATIONAL  PTCLDY    73  64  73 SW5       29.88F
DULLES         PTCLDY    67  62  84 S6        29.87F
FORT BELVOIR   NOT AVBL
QUANTICO       NOT AVBL
FREDERICKSBRG* PTCLDY    68  66  94 CALM      29.88S
STAFFORD*      PTCLDY    59  58  96 CALM      29.93S
WARRENTON      PTCLDY    65  64  96 S3        29.88S
CULPEPER*      CLEAR     61  61  99 CALM      29.89F
MANASSAS*      PTCLDY    63  63 100 CALM      29.88F
LEESBURG*      CLEAR     66  64  94 CALM      29.88F
WINCHESTER     CLEAR     70  59  68 SW7       29.88S
FRONT ROYAL*   FAIR      64  59  82 S5        29.88S
LURAY*         FAIR      63  63 100 CALM      29.90F
$$

VAZ048-049-060>072-079>083-030900-
CENTRAL AND SOUTH CENTRAL VIRGINIA

CITY           SKY/WX    TMP DP  RH WIND       PRES   REMARKS
RICHMOND       PTCLDY    70  64  81 S3        29.90S
CHESTERFIELD*  FAIR      64  52  63 CALM      29.91F
PETERSBURG*    CLEAR     64  64 100 CALM      29.90F
HANOVER        PTCLDY    64  63  96 CALM      29.91F
TAPPAHANNOCK*  PTCLDY    66  63  90 CALM      29.90S
QUINTON*       FAIR      66  65  96 CALM      29.89S
CHARLOTTSVILLE PTCLDY    66  61  84 CALM      29.90F
GORDONSVILLE*  FAIR      61  61 100 CALM      29.90S
ORANGE*        PTCLDY    63  63 100 CALM      29.91F
LOUISA*        PTCLDY    66  61  82 CALM      29.89F
BUMPASS*       FAIR      62  60  94 MISG      29.89F
FARMVILLE*     CLEAR     59  59 100 CALM      29.90F
CREWE*         FAIR     N/A N/A N/A CALM      29.91S
FORT PICKETT*  FAIR      64  62  93 CALM      29.91F
CHASE CITY*    FAIR      65  65 100 CALM      29.91S
CLARKSVILLE*   FAIR      63  63 100 CALM      29.90F
SOUTH HILL*    CLEAR     64  62  93 CALM      29.97S
LAWRENCEVILLE* FAIR      63  63 100 CALM      29.90S
EMPORIA*       CLEAR     64  63  94 NE3       29.91F
$$

VAZ088>098-030900-
SOUTHEAST VIRGINIA

CITY           SKY/WX    TMP DP  RH WIND       PRES   REMARKS
NORFOLK        PTCLDY    74  71  91 S5        29.89F
VIRGINIA BEACH PTCLDY    77  72  84 SW5       29.89S
NORFOLK NAVAL  PTCLDY    72  70  93 SW6       29.90F
WEST POINT*    CLEAR     70  67  90 CALM      29.91S
SALUDA*        FAIR      69  68  96 SW3       29.89S
NEWPORT NEWS   FOG       68  68 100 CALM      29.89F VSB 1/4
LANGLEY AFB    CLEAR     72  71  96 W2        29.89S
FORT EUSTIS    CLEAR     73  73 100 CALM      29.87F
WILLIAMSBURG*  CLEAR     73  72  94 CALM      29.90S
HR EXEC AP*    FAIR      66  63  88 S3        29.92S
FRANKLIN*      CLEAR     71  69  93 S3        29.90S
WAKEFIELD      CLEAR     67  64  90 CALM      29.89F FOG
$$

VAZ020-022-025-037-045-030900-
WEST CENTRAL AND SOUTHWEST VIRGINIA

CITY           SKY/WX    TMP DP  RH WIND       PRES   REMARKS
STAUNTON*      CLEAR     60  58  91 CALM      29.95F
WAYNESBORO*    FAIR      59  57  93 CALM      29.95S
HOT SPRINGS VA CLEAR     65  50  58 SW9       30.04S
LYNCHBURG      CLEAR     60  60 100 CALM      29.95F
DANVILLE       CLEAR     64  62  93 SW3       29.92F
SOUTH BOSTON*  FAIR      62  61  96 CALM      29.91F
MARTINSVILLE   CLEAR     61  61 100 CALM      29.97S
ROANOKE        CLEAR     62  58  86 N5        29.98F
BLACKSBURG     PTCLDY    59  58  96 CALM      30.03S
DUBLIN*          N/A     60  58  94 CALM      30.02R
MARION*        CLEAR     61  57  87 CALM      30.04S
HILLSVILLE*    PTCLDY    64  56  75 S5        30.01F
RICHLANDS*     FAIR      68  57  66 S3        30.00F
WISE*          CLEAR     64  54  68 S5        30.01F
ABINGDON*      PTCLDY    67  59  76 E3        29.98F
$$

MDZ021>025-VAZ099-100-030900-
SOUTHERN MARYLAND AND THE DELMARVA PENINSULA

CITY           SKY/WX    TMP DP  RH WIND       PRES   REMARKS
PATUXENT RIVER PTCLDY    71  66  84 SW6       29.88S
BAY BRIDGE APT   N/A     75  63  64 SW7       29.87F
LEONARDTOWN    PTCLDY    68  63  83 CALM      29.90S
DOVER          CLEAR     69  68  98 S5        29.86S
GEORGETOWN     CLEAR     67  66  97 CALM      29.89S FOG
EASTON         CLEAR     70  69  99 CALM      29.91S
CAMBRIDGE      CLEAR     64  61  88 CALM      29.87S
SALISBURY      CLEAR     68  67  96 S5        29.88F
OCEAN CITY     CLEAR     65  64  97 CALM      29.88S
WALLOPS ISLAND CLEAR     70  69  97 SW3       29.89F
ACCOMACK*      FOG      N/A N/A N/A CALM      29.89S VSB 1/2
$$

NCZ012>017-030>032-030900-
NORTH CENTRAL AND EASTERN NORTH CAROLINA

CITY           SKY/WX    TMP DP  RH WIND       PRES   REMARKS
ROANOKE RAPIDS FAIR      66  64  94 CALM      29.90F
RALEIGH        PTCLDY    70  66  87 CALM      29.91F
ELIZABETH CITY CLEAR     75  73  93 SW7       29.91S
AHOSKIE*       CLEAR     69  67  96 CALM      29.90F FOG
EDENTON*       CLEAR     75  73  91 SW8       29.91F
CURRITUCK*     PTCLDY    74  71  88 S3        29.91S
KILL DEVIL HLS CLEAR     78  72  83 SW6       29.91S
MANTEO         CLEAR     78  74  88 SW6       29.92F
CAPE HATTERAS  MOCLDY    77  73  87 SW10      29.93R
TARBORO*         N/A     69  68  96 CALM      29.91S FOG
GOLDSBORO      CLEAR     73  72  96 SE3       29.90S
WASHINGTON     CLEAR     72  71  96 CALM      29.92F
GREENVILLE     CLEAR     72  72 100 CALM      29.94R
NEW BERN       MOCLDY    74  71  91 CALM      29.93S
WILMINGTON     LGT RAIN  74  71  91 SW8       29.92S
$$

VAZ048-030900-
ELSEWHERE

CITY           SKY/WX    TMP DP  RH WIND       PRES   REMARKS
HARRISBURG PA  PTCLDY    73  62  68 SW14      29.85R
BALTIMORE      PTCLDY    68  63  84 CALM      29.86F
ANNAPOLIS      CLEAR     71  63  75 CALM      29.86F
ANDREWS AFB    PTCLDY    69  63  83 SW7       29.87F
PHILADELPHIA   CLEAR     73  64  73 S8        29.87S
HENDERSON NC   CLEAR     65  61  88 SW3       29.91F
GREENSBORO     PTCLDY    71  60  68 CALM      29.93S
ROCKY MOUNT    CLEAR     71  69  93 CALM      29.91S
$$

VAZ100-030900-
MARINE

STATION/POSITION TIME  TEMP    WIND        PRES    WAVE   SWELL
                       AIR SEA DIR/SP/G            HT/PER HT/PER
                 (UTC) (F)     (DEG/KT/KT) (MB)    (FT/S) (FT/S)
BRANDYWINE LGT   0700   75 74  240/  8/ 10 1011.9F
CAPE MAY NJ      0700   72 75  200/  4/  5 1011.5F
LEWES DE         0700   72 75  210/  3/  4 1011.5F
15NM E FENWICK I 0750   79 79  230/  8/ 10 1011.9F   2/11   2/11
OCEAN-CITY-INLET 0700   74 76  260/  3/  4 1011.0F
WACHAPREAGUE VA  0700   73 82   CALM  /  2 1012.3F
GOOSES REEF MD   0800   78 81  240/ 10/ 12 1012.6S
COVE POINT MD    0700   75     250/  8/ 10 1012.4F
SOLOMONS ISLAND  0700      83                N/A
BISHOPS HEAD MD  0700   79 81  210/  8/  9 1010.9F
PINEY POINT MD   0700          230/ 10/ 10   N/A
POTOMAC MD       0800   77 82  220/ 10/ 10 1010.8S   1/ 2
CAMBRIDGE MD     0700   72 85  190/  1/  3 1010.8F
LEWISETTA VA     0700   74 83  240/  6/  8 1011.5F
RAPPAHANNOCK LGT 0700          210/  7/  9 1012.7F
STINGRAY PT      0800   79 83  230/ 10/ 12 1012.0F   1
YORK RVR RNG VA  0700   78     230/  9/ 10 1011.7F
YORKTOWN VA      0700   74 84  220/  6/  7 1012.0F
JAMESTOWN VA     0800   75 86  230/  8/ 10   N/A
DOMINION TERM VA 0700   78     230/  5/  7 1012.1F
KIPTOPEKE VA     0700      81  270/  4/  6   N/A
CHES BAY BRIDGE  0700   78 78  210/  8/ 10 1011.8F
CAPE HENRY VA    0700   76     220/  5/  7   N/A
CHESAPEAKE LGHT  0700   79     240/  5/  6 1013.1F
WILLOUBY STN VA  0700   78     250/  7/  8 1013.1F
CAPE HENRY BUOY  0728      81                N/A     2/12   2/12
1ST LANDING BUOY 0800      78              1012.0F   1
CAPE CHARLES BUO 0726      80                N/A     2/12   2/12
OFFSHORE WE BUOY 0711      83                N/A     3/11   2/11
64NM E OF VA BCH 0750   81 81  220/ 16/ 19 1012.2F   3/11   2/11
DUCK PIER NC     0700   80 73  210/ 11/ 13 1012.2F
44100 DUCK FRF   0724      80                N/A     2/11   2/11
44056 DUCK FRF   0711      79                N/A     2/10   2/12
OREGON INLET NC  0700   80 86  250/  8/ 11 1013.4F
HATTERAS NC      0700   78 83  230/  5/  6 1013.5F
DIAMOND SHLS NC  0750   77 84  220/ 16/ 19 1013.5F   4/ 5   2/11


USA.gov is the U.S. government's official web portal to all federal, state and local government web resources and services.